GW3049 Weather Reports


time (UTC)temp
F
wind
direction
speed
knots
gust
knots
rain 1hr
in
rain 24hr
in
rain mn
in
humidity
%
barometer
mb
20260507095705 53 0.0 0.0 0.00 0.00 0.00 88 1014.4
20260507095206 53 0.0 0.0 0.00 0.00 0.00 88 1014.4
20260507094705 53 0.0 0.0 0.00 0.00 0.00 88 1014.4
20260507093706 53 0.0 0.0 0.00 0.00 0.00 89 1014.3
20260507093205 53 0.0 0.0 0.00 0.00 0.00 91 1014.3
20260507092706 53 0.0 0.0 0.00 0.00 0.00 91 1014.3
20260507092205 52 0.0 0.0 0.00 0.00 0.00 94 1014.1
20260507091705 52 0.0 0.0 0.00 0.00 0.00 94 1014.1
20260507091206 52 0.0 0.0 0.00 0.00 0.00 98 1014.1
20260507090204 51 0.0 0.0 0.00 0.00 0.00 100 1014.0
20260507085705 51 0.0 0.0 0.00 0.00 0.00 100 1014.0
20260507085204 51 0.0 0.0 0.00 0.00 0.00 100 1014.0
20260507084706 51 0.0 0.0 0.00 0.00 0.00 100 1014.0
20260507084204 51 0.0 0.0 0.00 0.00 0.00 100 1013.9
20260507083705 51 0.0 0.0 0.00 0.00 0.00 100 1013.9
20260507083205 50 0.0 0.0 0.00 0.00 0.00 100 1013.9
20260507082705 50 0.0 0.0 0.00 0.00 0.00 100 1013.9
20260507082204 50 0.0 0.0 0.00 0.00 0.00 100 1013.9
20260507081704 50 0.0 0.0 0.00 0.00 0.00 100 1013.9
20260507081207 49 0.0 0.0 0.00 0.00 0.00 100 1013.9
20260507080705 49 0.0 0.0 0.00 0.00 0.00 100 1013.9
20260507080205 49 0.0 0.0 0.00 0.00 0.00 100 1013.8
20260507075205 49 0.0 0.0 0.00 0.00 0.00 100 1013.7
20260507074705 49 0.0 0.0 0.00 0.00 0.00 100 1013.7
20260507074205 49 0.0 0.0 0.00 0.00 0.00 100 1013.6
20260507073704 49 0.0 0.0 0.00 0.00 0.00 100 1013.6
20260507073205 49 0.0 0.0 0.00 0.00 0.00 100 1013.5
20260507072705 49 0.0 0.0 0.00 0.00 0.00 100 1013.5
20260507071704 49 0.0 0.0 0.00 0.00 0.00 100 1013.2
20260507071205 49 0.0 0.0 0.00 0.00 0.00 100 1013.2
20260507070705 49 0.0 0.0 0.00 0.00 0.00 100 1013.2
20260507070204 49 0.0 0.0 0.00 0.00 0.00 100 1013.0
20260507065705 49 0.0 0.0 0.00 0.00 0.00 100 1013.0
20260507065205 49 0.0 0.0 0.00 0.00 0.00 100 1013.0
20260507064705 49 0.0 0.0 0.00 0.00 0.00 100 1013.0
20260507064205 49 0.0 0.0 0.00 0.00 0.00 100 1013.0
20260507063206 49 0.0 0.0 0.00 0.00 0.00 100 1012.9
20260507062704 49 0.0 0.0 0.00 0.00 0.00 100 1012.9
20260507062205 49 0.0 0.0 0.00 0.00 0.00 100 1012.7
20260507061205 49 0.0 0.0 0.00 0.00 0.00 100 1012.7
20260507060704 49 0.0 0.0 0.00 0.00 0.00 100 1012.7
20260507060205 49 0.0 0.0 0.00 0.00 0.00 100 1012.5
20260507055705 49 0.0 0.0 0.00 0.00 0.00 100 1012.5
20260507054705 49 0.0 0.0 0.00 0.00 0.00 100 1012.5
20260507053705 49 0.0 0.0 0.00 0.00 0.00 100 1012.3
20260507052705 49 0.0 0.0 0.00 0.00 0.00 100 1012.2
20260507052206 49 0.0 0.0 0.00 0.00 0.00 100 1012.1
20260507051704 49 0.0 0.0 0.00 0.00 0.00 100 1012.1
20260507051205 49 0.0 0.0 0.00 0.00 0.00 100 1012.0
20260507050705 49 0.0 0.0 0.00 0.00 0.00 100 1012.0
20260507050205 49 0.0 0.0 0.00 0.00 0.00 100 1011.8
20260507045207 49 0.0 0.0 0.00 0.00 0.00 100 1011.7
20260507044704 49 0.0 0.0 0.00 0.00 0.00 100 1011.7
20260507044206 49 0.0 0.0 0.00 0.00 0.00 100 1011.5
20260507043704 49 0.0 0.0 0.00 0.00 0.00 100 1011.5
20260507043205 50 0.0 0.0 0.00 0.00 0.00 99 1011.3
20260507042705 50 0.0 0.0 0.00 0.00 0.00 99 1011.3
20260507042204 50 0.0 0.0 0.00 0.00 0.00 99 1011.2
20260507041205 50 0.0 0.0 0.00 0.00 0.00 99 1011.1
20260507040704 50 0.0 0.0 0.00 0.00 0.00 99 1011.1
20260507040207 50 0.0 0.0 0.00 0.00 0.00 99 1010.9
20260507035705 50 0.0 0.0 0.00 0.00 0.00 99 1010.9
20260507035204 50 0.0 0.0 0.00 0.00 0.00 99 1010.9
20260507034704 50 0.0 0.0 0.00 0.00 0.00 99 1010.9
20260507034205 50 0.0 0.0 0.00 0.00 0.00 99 1010.9
20260507033705 50 0.0 0.0 0.00 0.00 0.00 99 1010.9
20260507033207 50 0.0 0.0 0.00 0.00 0.00 99 1010.7
20260507032704 50 0.0 0.0 0.00 0.00 0.00 99 1010.7
20260507032206 50 0.0 0.0 0.00 0.00 0.00 98 1010.6
20260507031704 50 0.0 0.0 0.00 0.00 0.00 98 1010.6
20260507031205 50 0.0 0.0 0.00 0.00 0.00 98 1010.5
20260507030205 50 0.0 0.0 0.00 0.00 0.00 97 1010.4
20260507025206 50 0.0 0.0 0.00 0.00 0.00 98 1010.3
20260507024705 50 0.0 0.0 0.00 0.00 0.00 98 1010.3
20260507024204 50 0.0 0.0 0.00 0.00 0.00 100 1010.2
20260507023706 50 0.0 0.0 0.00 0.00 0.00 100 1010.2
20260507023205 50 0.0 0.0 0.00 0.00 0.00 100 1010.2
20260507022205 50 0.0 0.0 0.00 0.00 0.00 100 1010.1
20260507021705 50 0.0 0.0 0.00 0.00 0.00 100 1010.1
20260507021205 50 0.0 0.0 0.00 0.00 0.00 100 1010.0
20260507020205 50 0.0 0.0 0.00 0.00 0.00 100 1010.0
20260507015705 50 0.0 0.0 0.00 0.00 0.00 100 1010.0
20260507015204 50 0.0 0.0 0.00 0.00 0.00 99 1009.8
20260507014706 50 0.0 0.0 0.00 0.00 0.00 99 1009.8
20260507014205 50 0.0 0.0 0.00 0.00 0.00 99 1009.8
20260507013705 50 0.0 0.0 0.00 0.00 0.00 99 1009.8
20260507013206 50 0.0 0.0 0.00 0.00 0.00 99 1009.8
20260507012705 50 0.0 0.0 0.00 0.00 0.00 99 1009.8
20260507012205 50 0.0 0.0 0.00 0.00 0.00 99 1009.8
20260507011704 50 0.0 0.0 0.00 0.00 0.00 99 1009.8
20260507011205 50 0.0 0.0 0.00 0.00 0.00 98 1009.8
20260507010705 50 0.0 0.0 0.00 0.00 0.00 98 1009.8
20260507005704 50 0.0 0.0 0.00 0.00 0.00 97 1009.8
20260507005205 50 0.0 0.0 0.00 0.00 0.00 96 1009.8
20260507004705 50 0.0 0.0 0.00 0.00 0.00 96 1009.8
20260507004205 50 0.0 0.0 0.00 0.00 0.00 95 1009.8
20260507003705 50 0.0 0.0 0.00 0.00 0.00 95 1009.8
20260507002706 50 0.0 0.0 0.00 0.00 0.00 94 1009.7
20260507002205 50 0.0 0.0 0.00 0.00 0.00 93 1009.7
20260507001206 50 0.0 0.0 0.00 0.00 0.00 94 1009.7
20260507000706 50 0.0 0.0 0.00 0.00 0.00 94 1009.7
20260506235705 50 0.0 0.0 0.00 0.00 0.00 93 1009.8
20260506235204 51 0.0 0.0 0.00 0.00 0.00 92 1009.9
20260506234706 51 0.0 0.0 0.00 0.00 0.00 92 1009.9
20260506233705 51 0.0 0.0 0.00 0.00 0.00 92 1009.9
20260506232705 51 0.0 0.0 0.00 0.00 0.00 93 1009.8
20260506232204 51 0.0 0.0 0.00 0.00 0.00 93 1009.8
20260506231705 51 0.0 0.0 0.00 0.00 0.00 93 1009.8
20260506231205 51 0.0 0.0 0.00 0.00 0.00 93 1009.8
20260506230707 51 0.0 0.0 0.00 0.00 0.00 93 1009.8
20260506225705 51 0.0 0.0 0.00 0.00 0.00 95 1009.8
20260506225206 51 0.0 0.0 0.00 0.00 0.00 95 1009.7
20260506224705 51 0.0 0.0 0.00 0.00 0.00 95 1009.7
20260506224205 51 0.0 0.0 0.00 0.00 0.00 93 1009.4
20260506223706 51 0.0 0.0 0.00 0.00 0.00 93 1009.4
20260506223205 51 0.0 0.0 0.00 0.00 0.00 93 1009.4
20260506222206 51 0.0 0.0 0.00 0.00 0.00 95 1009.2
20260506221705 51 0.0 0.0 0.00 0.00 0.00 95 1009.2
20260506221205 51 0.0 0.0 0.00 0.00 0.00 95 1009.2
20260506220705 51 0.0 0.0 0.00 0.00 0.00 95 1009.2
20260506215206 52 0.0 0.0 0.00 0.00 0.00 97 1009.1
20260506214704 52 0.0 0.0 0.00 0.00 0.00 97 1009.1
20260506214205 52 0.0 0.0 0.00 0.00 0.00 98 1009.0
20260506213705 52 0.0 0.0 0.00 0.00 0.00 98 1009.0
20260506213205 52 0.0 0.0 0.00 0.00 0.00 98 1008.9
20260506212705 52 0.0 0.0 0.00 0.00 0.00 98 1008.9
20260506211705 52 0.0 0.0 0.00 0.00 0.00 98 1008.8
20260506210704 52 0.0 0.0 0.00 0.00 0.00 98 1008.8
20260506210205 52 0.0 0.0 0.00 0.00 0.00 98 1008.8
20260506205705 52 0.0 0.0 0.00 0.00 0.00 98 1008.8
20260506204705 52 0.0 0.0 0.00 0.00 0.00 98 1008.7
20260506203705 52 0.0 0.0 0.00 0.00 0.00 98 1008.7
20260506203204 53 0.0 0.0 0.00 0.00 0.00 98 1008.7
20260506202706 53 0.0 0.0 0.00 0.00 0.00 98 1008.7
20260506202204 53 0.0 0.0 0.00 0.00 0.00 97 1008.5
20260506201707 53 0.0 0.0 0.00 0.00 0.00 97 1008.5
20260506201205 53 0.0 0.0 0.00 0.00 0.00 97 1008.5
20260506200705 53 0.0 0.0 0.00 0.00 0.00 97 1008.5
20260506200204 53 0.0 0.0 0.00 0.00 0.00 97 1008.5
20260506195704 53 0.0 0.0 0.00 0.00 0.00 97 1008.5
20260506195206 53 0.0 0.0 0.00 0.00 0.00 96 1008.0
20260506194204 53 0.0 0.0 0.00 0.00 0.00 96 1008.0
20260506193705 53 0.0 0.0 0.00 0.00 0.00 96 1008.0
20260506193205 53 0.0 0.0 0.00 0.00 0.00 96 1007.9
20260506192705 53 0.0 0.0 0.00 0.00 0.00 96 1007.9
20260506192204 54 0.0 0.0 0.00 0.00 0.00 97 1007.8
20260506191705 54 0.0 0.0 0.00 0.00 0.00 97 1007.8
20260506191205 54 0.0 0.0 0.00 0.00 0.00 97 1007.6
20260506190704 54 0.0 0.0 0.00 0.00 0.00 97 1007.6
20260506185705 54 0.0 0.0 0.00 0.00 0.00 98 1007.4
20260506185205 54 0.0 0.0 0.00 0.00 0.00 99 1007.3
20260506184705 54 0.0 0.0 0.00 0.00 0.00 99 1007.3
20260506184204 54 0.0 0.0 0.00 0.00 0.00 99 1007.1
20260506183705 54 0.0 0.0 0.00 0.00 0.00 99 1007.1
20260506183205 54 0.0 0.0 0.00 0.00 0.00 99 1007.0
20260506182704 54 0.0 0.0 0.00 0.00 0.00 99 1007.0
20260506182205 54 0.0 0.0 0.00 0.00 0.00 99 1006.9
20260506181705 54 0.0 0.0 0.00 0.00 0.00 99 1006.9
20260506181206 54 0.0 0.0 0.00 0.00 0.00 99 1006.9
20260506180705 54 0.0 0.0 0.00 0.00 0.00 99 1006.9
20260506180205 54 0.0 0.0 0.00 0.00 0.00 99 1006.8
20260506175704 54 0.0 0.0 0.00 0.00 0.00 99 1006.8
20260506175204 54 0.0 0.0 0.00 0.00 0.00 98 1006.7
20260506174705 54 0.0 0.0 0.00 0.00 0.00 98 1006.7
20260506174206 55 0.0 0.0 0.00 0.00 0.00 98 1006.7
20260506173704 55 0.0 0.0 0.00 0.00 0.00 98 1006.7
20260506173205 55 0.0 0.0 0.00 0.00 0.00 98 1006.6
20260506172204 55 0.0 0.0 0.00 0.00 0.00 98 1006.6
20260506171706 55 0.0 0.0 0.00 0.00 0.00 98 1006.6
20260506171204 55 0.0 0.0 0.00 0.00 0.00 98 1006.6
20260506170206 55 0.0 0.0 0.00 0.00 0.00 98 1006.6
20260506165704 55 0.0 0.0 0.00 0.00 0.00 98 1006.6
20260506165205 55 0.0 0.0 0.00 0.00 0.00 98 1006.6
20260506164705 55 0.0 0.0 0.00 0.00 0.00 98 1006.6
20260506164204 55 0.0 0.0 0.00 0.00 0.00 98 1006.6
20260506163707 55 0.0 0.0 0.00 0.00 0.00 98 1006.6
20260506163205 54 0.0 0.0 0.00 0.00 0.00 98 1006.6
20260506162704 54 0.0 0.0 0.00 0.00 0.00 98 1006.6
20260506161208 55 0.0 0.0 0.00 0.00 0.00 98 1006.6
20260506160705 55 0.0 0.0 0.00 0.00 0.00 98 1006.6
20260506160204 55 0.0 0.0 0.00 0.00 0.00 98 1006.5
20260506155705 55 0.0 0.0 0.00 0.00 0.00 98 1006.5
20260506154704 55 0.0 0.0 0.00 0.00 0.00 98 1006.2
20260506154205 55 0.0 0.0 0.00 0.00 0.00 98 1006.2
20260506153705 55 0.0 0.0 0.00 0.00 0.00 98 1006.2
20260506153206 55 0.0 0.0 0.00 0.00 0.00 98 1006.2
20260506152705 55 0.0 0.0 0.00 0.00 0.00 98 1006.2
20260506152205 55 0.0 0.0 0.00 0.00 0.00 97 1006.2
20260506151705 55 0.0 0.0 0.00 0.00 0.00 97 1006.2
20260506150706 55 0.0 0.0 0.00 0.00 0.00 97 1006.2
20260506150205 55 0.0 0.0 0.00 0.00 0.00 97 1006.2
20260506145704 55 0.0 0.0 0.00 0.00 0.00 97 1006.2
20260506145207 54 0.0 0.0 0.00 0.00 0.00 95 1006.3
20260506144705 54 0.0 0.0 0.00 0.00 0.00 95 1006.3
20260506144206 54 0.0 0.0 0.00 0.00 0.00 93 1006.5
20260506143204 56 0.0 0.0 0.00 0.00 0.00 88 1006.4
20260506142705 56 0.0 0.0 0.00 0.00 0.00 88 1006.4
20260506142205 56 0.0 0.0 0.00 0.00 0.00 88 1006.4
20260506141705 56 0.0 0.0 0.00 0.00 0.00 88 1006.4
20260506141205 58 0.0 0.0 0.00 0.00 0.00 84 1005.8
20260506140706 58 0.0 0.0 0.00 0.00 0.00 84 1005.8
20260506140205 60 0.0 0.0 0.00 0.00 0.00 83 1005.4
20260506135704 60 0.0 0.0 0.00 0.00 0.00 83 1005.4
20260506135204 61 0.0 0.0 0.00 0.00 0.00 80 1005.2
20260506134705 61 0.0 0.0 0.00 0.00 0.00 80 1005.2
20260506134206 61 0.0 0.0 0.00 0.00 0.00 78 1005.0
20260506133206 64 0.0 0.0 0.00 0.00 0.00 73 1004.7
20260506132705 64 0.0 0.0 0.00 0.00 0.00 73 1004.7
20260506131704 64 0.0 0.0 0.00 0.00 0.00 73 1004.7
20260506131204 64 0.0 0.0 0.00 0.00 0.00 75 1004.6
20260506130707 64 0.0 0.0 0.00 0.00 0.00 75 1004.6
20260506130205 64 0.0 0.0 0.00 0.00 0.00 73 1004.4
20260506125705 64 0.0 0.0 0.00 0.00 0.00 73 1004.4
20260506125204 64 0.0 0.0 0.00 0.00 0.00 65 1004.4
20260506124705 64 0.0 0.0 0.00 0.00 0.00 65 1004.4
20260506124205 64 0.0 0.0 0.00 0.00 0.00 62 1004.5
20260506123705 64 0.0 0.0 0.00 0.00 0.00 62 1004.5
20260506123206 64 0.0 0.0 0.00 0.00 0.00 62 1004.5
20260506122204 64 0.0 0.0 0.00 0.00 0.00 62 1004.5
20260506121705 64 0.0 0.0 0.00 0.00 0.00 62 1004.5
20260506121205 64 0.0 0.0 0.00 0.00 0.00 63 1004.6
20260506120707 64 0.0 0.0 0.00 0.00 0.00 63 1004.6
20260506120204 64 0.0 0.0 0.00 0.00 0.00 65 1004.7
20260506115704 64 0.0 0.0 0.00 0.00 0.00 65 1004.7
20260506115205 64 0.0 0.0 0.00 0.00 0.00 65 1004.7
20260506114704 64 0.0 0.0 0.00 0.00 0.00 65 1004.7
20260506114205 64 0.0 0.0 0.00 0.00 0.00 64 1004.7
20260506113704 64 0.0 0.0 0.00 0.00 0.00 64 1004.7
20260506113205 64 0.0 0.0 0.00 0.00 0.00 65 1004.9
20260506112704 64 0.0 0.0 0.00 0.00 0.00 65 1004.9
20260506111705 64 0.0 0.0 0.00 0.00 0.00 65 1004.9
20260506111206 64 0.0 0.0 0.00 0.00 0.00 63 1005.1
20260506110704 64 0.0 0.0 0.00 0.00 0.00 63 1005.1
20260506110207 64 0.0 0.0 0.00 0.00 0.00 63 1005.1
20260506105704 64 0.0 0.0 0.00 0.00 0.00 63 1005.1
20260506105204 63 0.0 0.0 0.00 0.00 0.00 63 1005.3
20260506104705 63 0.0 0.0 0.00 0.00 0.00 63 1005.3
20260506103704 63 0.0 0.0 0.00 0.00 0.00 63 1005.3
20260506103205 64 0.0 0.0 0.00 0.00 0.00 67 1005.4
20260506102704 64 0.0 0.0 0.00 0.00 0.00 67 1005.4
20260506102206 63 0.0 0.0 0.00 0.00 0.00 69 1005.4
20260506101705 63 0.0 0.0 0.00 0.00 0.00 69 1005.4
20260506101205 63 0.0 0.0 0.00 0.00 0.00 71 1005.4
20260506100705 63 0.0 0.0 0.00 0.00 0.00 71 1005.4